YM2KA-13 Weather Reports


Display with metric or nautical units.
time (UTC)temp
F
wind
direction
speed
MPH
gust
MPH
rain 1hr
in
rain 24hr
in
rain mn
in
humidity
%
barometer
mb
20260508023725 52 255 0.0 0.0 0.00 0.00 0.00 71 1017.1
20260508023351 52 255 0.0 0.0 0.00 0.00 0.00 71 1017.1
20260508022352 52 255 0.0 0.0 0.00 0.00 0.00 71 1017.0
20260508022231 52 255 0.0 0.0 0.00 0.00 0.00 71 1017.0
20260508021353 52 255 0.0 0.0 0.00 0.00 0.00 71 1016.9
20260508020727 52 255 0.0 1.0 0.00 0.00 0.00 71 1016.9
20260508020353 52 255 0.0 0.0 0.00 0.00 0.00 71 1016.9
20260508015354 52 255 0.0 0.0 0.00 0.00 0.00 70 1017.0
20260508015233 52 255 0.0 0.0 0.00 0.00 0.00 70 1017.0
20260508014346 52 255 0.0 0.0 0.00 0.00 0.00 69 1017.1
20260508013730 52 255 1.0 1.0 0.00 0.00 0.00 70 1017.1
20260508013346 52 217 1.0 1.0 0.00 0.00 0.00 70 1017.1
20260508012348 52 158 0.0 0.0 0.00 0.00 0.00 71 1017.1
20260508012226 52 167 1.0 1.0 0.00 0.00 0.00 71 1017.2
20260508011349 52 157 1.0 1.0 0.00 0.00 0.00 71 1017.2
20260508010733 52 211 0.0 1.0 0.00 0.00 0.00 70 1017.3
20260508010349 52 188 0.0 2.0 0.00 0.00 0.00 70 1017.3
20260508005350 52 176 0.0 0.0 0.00 0.00 0.00 69 1017.4
20260508005229 52 170 0.0 0.0 0.00 0.00 0.00 69 1017.4
20260508004351 52 187 0.0 0.0 0.00 0.00 0.00 69 1017.5
20260508003725 53 167 0.0 0.0 0.00 0.00 0.00 69 1017.4
20260508003351 53 257 0.0 0.0 0.00 0.00 0.00 69 1017.4
20260508002353 52 257 0.0 0.0 0.00 0.00 0.00 69 1017.6
20260508002232 53 257 0.0 0.0 0.00 0.00 0.00 69 1017.6
20260508001355 53 257 0.0 0.0 0.00 0.00 0.00 68 1017.6
20260508000729 53 257 0.0 0.0 0.00 0.00 0.00 68 1017.6
20260508000345 53 257 0.0 0.0 0.00 0.00 0.00 68 1017.6
20260507235346 53 257 0.0 0.0 0.00 0.00 0.00 67 1017.6
20260507235225 54 257 0.0 0.0 0.00 0.00 0.00 66 1017.6
20260507234349 54 257 0.0 0.0 0.00 0.00 0.00 66 1017.5
20260507233732 54 257 0.0 0.0 0.00 0.00 0.00 66 1017.5
20260507233348 54 257 0.0 1.0 0.00 0.00 0.00 65 1017.5
20260507232350 54 239 0.0 0.0 0.00 0.00 0.00 65 1017.5
20260507232229 54 239 0.0 0.0 0.00 0.00 0.00 65 1017.5
20260507231351 55 239 0.0 0.0 0.00 0.00 0.00 64 1017.4
20260507230725 55 239 0.0 0.0 0.00 0.00 0.00 64 1017.4
20260507230351 55 239 0.0 0.0 0.00 0.00 0.00 63 1017.4
20260507225353 56 239 0.0 0.0 0.00 0.00 0.00 61 1017.3
20260507225232 56 239 0.0 0.0 0.00 0.00 0.00 61 1017.3
20260507224354 56 231 0.0 0.0 0.00 0.00 0.00 62 1017.4
20260507223728 56 231 0.0 0.0 0.00 0.00 0.00 62 1017.4
20260507223344 56 231 0.0 0.0 0.00 0.00 0.00 61 1017.2
20260507222346 56 231 0.0 0.0 0.00 0.00 0.00 61 1017.4
20260507222225 56 231 0.0 0.0 0.00 0.00 0.00 61 1017.4
20260507221347 57 231 0.0 0.0 0.00 0.00 0.00 60 1017.4
20260507220732 57 221 0.0 0.0 0.00 0.00 0.00 60 1017.4
20260507220348 57 221 0.0 0.0 0.00 0.00 0.00 60 1017.4
20260507215349 57 238 0.0 0.0 0.00 0.00 0.00 60 1017.4
20260507215228 57 230 0.0 0.0 0.00 0.00 0.00 60 1017.5
20260507214351 56 222 1.0 1.0 0.00 0.00 0.00 60 1017.5
20260507213725 56 206 0.0 1.0 0.00 0.00 0.00 60 1017.6
20260507213351 56 206 1.0 2.0 0.00 0.00 0.00 60 1017.6
20260507212353 56 171 2.0 3.0 0.00 0.00 0.00 60 1017.7
20260507212232 56 196 1.0 2.0 0.00 0.00 0.00 59 1017.7
20260507211354 56 218 0.0 0.0 0.00 0.00 0.00 59 1017.6
20260507210728 57 262 0.0 1.0 0.00 0.00 0.00 59 1017.7
20260507210344 57 262 0.0 0.0 0.00 0.00 0.00 58 1017.6
20260507205346 57 262 0.0 0.0 0.00 0.00 0.00 58 1017.7
20260507205225 57 262 0.0 0.0 0.00 0.00 0.00 58 1017.7
20260507204347 57 230 0.0 0.0 0.00 0.00 0.00 57 1017.7
20260507203731 57 250 0.0 1.0 0.00 0.00 0.00 57 1017.6
20260507203347 57 250 0.0 1.0 0.00 0.00 0.00 57 1017.6
20260507202349 57 198 0.0 0.0 0.00 0.00 0.00 57 1017.5
20260507202228 57 197 0.0 0.0 0.00 0.00 0.00 57 1017.5
20260507201350 57 197 0.0 0.0 0.00 0.00 0.00 55 1017.4
20260507200725 58 197 0.0 0.0 0.00 0.00 0.00 55 1017.4
20260507200351 58 197 0.0 0.0 0.00 0.00 0.00 55 1017.4
20260507195352 58 154 0.0 2.0 0.00 0.00 0.00 54 1017.3
20260507195232 58 193 1.0 2.0 0.00 0.00 0.00 54 1017.3
20260507194354 58 204 2.0 3.0 0.00 0.00 0.00 54 1017.2
20260507193728 58 172 1.0 2.0 0.00 0.00 0.00 54 1017.2
20260507193354 58 194 0.0 0.0 0.00 0.00 0.00 54 1017.3
20260507192346 58 152 0.0 2.0 0.00 0.00 0.00 54 1017.3
20260507192225 58 147 1.0 2.0 0.00 0.00 0.00 53 1017.3
20260507191347 59 140 0.0 1.0 0.00 0.00 0.00 53 1017.3
20260507190731 59 199 0.0 1.0 0.00 0.00 0.00 53 1017.3
20260507190347 59 201 1.0 2.0 0.00 0.00 0.00 52 1017.3
20260507185349 60 136 0.0 0.0 0.00 0.00 0.00 52 1017.2
20260507185228 60 206 1.0 1.0 0.00 0.00 0.00 51 1017.2
20260507184350 60 222 0.0 0.0 0.00 0.00 0.00 51 1017.2
20260507183724 60 201 1.0 1.0 0.00 0.00 0.00 51 1017.1
20260507183351 60 204 0.0 0.0 0.00 0.00 0.00 51 1017.1
20260507182352 60 217 1.0 2.0 0.00 0.00 0.00 50 1017.0
20260507182231 60 212 0.0 1.0 0.00 0.00 0.00 50 1017.0
20260507181353 60 207 1.0 2.0 0.00 0.00 0.00 49 1017.0
20260507180728 60 221 1.0 1.0 0.00 0.00 0.00 49 1016.9
20260507180354 60 209 1.0 2.0 0.00 0.00 0.00 49 1016.9
20260507175346 61 210 1.0 1.0 0.00 0.00 0.00 48 1016.8
20260507175224 61 209 1.0 2.0 0.00 0.00 0.00 48 1016.8
20260507174347 61 216 0.0 2.0 0.00 0.00 0.00 48 1016.7
20260507173731 61 223 0.0 1.0 0.00 0.00 0.00 48 1016.8
20260507173347 61 223 0.0 0.0 0.00 0.00 0.00 48 1016.7
20260507172349 61 227 1.0 2.0 0.00 0.00 0.00 47 1016.7
20260507172227 61 229 0.0 1.0 0.00 0.00 0.00 47 1016.7
20260507171349 61 236 1.0 2.0 0.00 0.00 0.00 46 1016.6
20260507170733 61 265 1.0 2.0 0.00 0.00 0.00 46 1016.7
20260507170349 61 253 0.0 0.0 0.00 0.00 0.00 46 1016.7
20260507165351 62 233 0.0 1.0 0.00 0.00 0.00 45 1016.8
20260507165230 62 262 0.0 1.0 0.00 0.00 0.00 45 1016.8
20260507164352 62 258 2.0 2.0 0.00 0.00 0.00 43 1016.8
20260507163726 62 285 1.0 3.0 0.00 0.00 0.00 42 1016.7
20260507163353 62 269 0.0 0.0 0.00 0.00 0.00 42 1016.6
20260507162353 63 279 1.0 3.0 0.00 0.00 0.00 40 1016.5
20260507162232 63 264 0.0 2.0 0.00 0.00 0.00 41 1016.5
20260507161344 63 271 2.0 3.0 0.00 0.00 0.00 39 1016.5
20260507160729 64 265 1.0 2.0 0.00 0.00 0.00 37 1016.5
20260507160345 64 277 1.0 3.0 0.00 0.00 0.00 37 1016.6
20260507155346 65 258 1.0 3.0 0.00 0.00 0.00 35 1016.6
20260507155225 65 290 2.0 6.0 0.00 0.00 0.00 36 1016.6
20260507154348 64 251 2.0 5.0 0.00 0.00 0.00 35 1016.6
20260507153732 64 283 3.0 5.0 0.00 0.00 0.00 35 1016.6
20260507153348 64 284 5.0 7.0 0.00 0.00 0.00 34 1016.6
20260507152350 64 297 2.0 6.0 0.00 0.00 0.00 36 1016.5
20260507152229 64 276 2.0 5.0 0.00 0.00 0.00 36 1016.5
20260507151351 64 295 5.0 9.0 0.00 0.00 0.00 37 1016.5
20260507150725 65 282 5.0 9.0 0.00 0.00 0.00 37 1016.5
20260507150351 65 277 6.0 10.0 0.00 0.00 0.00 37 1016.5
20260507145353 65 261 7.0 12.0 0.00 0.00 0.00 38 1016.5
20260507145232 65 254 5.0 5.0 0.00 0.00 0.00 38 1016.5
20260507144344 65 287 6.0 7.0 0.00 0.00 0.00 38 1016.6
20260507143729 65 286 6.0 10.0 0.00 0.00 0.00 38 1016.5
20260507143345 66 289 3.0 7.0 0.00 0.00 0.00 37 1016.6
20260507142346 65 293 5.0 7.0 0.00 0.00 0.00 37 1016.5
20260507142225 65 292 5.0 7.0 0.00 0.00 0.00 38 1016.5
20260507141347 65 270 5.0 8.0 0.00 0.00 0.00 38 1016.5
20260507140732 65 235 6.0 10.0 0.00 0.00 0.00 37 1016.6
20260507140348 65 263 6.0 9.0 0.00 0.00 0.00 38 1016.5
20260507135350 65 293 6.0 10.0 0.00 0.00 0.00 35 1016.6
20260507135228 65 248 1.0 2.0 0.00 0.00 0.00 36 1016.5
20260507134351 65 263 6.0 8.0 0.00 0.00 0.00 36 1016.5
20260507133725 66 271 6.0 9.0 0.00 0.00 0.00 37 1016.5
20260507133351 65 285 6.0 8.0 0.00 0.00 0.00 37 1016.5
20260507132353 65 268 1.0 3.0 0.00 0.00 0.00 38 1016.5
20260507132232 65 207 1.0 3.0 0.00 0.00 0.00 38 1016.6
20260507131344 65 170 3.0 5.0 0.00 0.00 0.00 39 1016.7
20260507130728 66 34 2.0 7.0 0.00 0.00 0.00 37 1016.7
20260507130344 65 291 2.0 3.0 0.00 0.00 0.00 37 1016.6
20260507125346 65 339 2.0 3.0 0.00 0.00 0.00 38 1016.7
20260507125225 65 264 6.0 7.0 0.00 0.00 0.00 39 1016.8
20260507124347 65 240 1.0 3.0 0.00 0.00 0.00 40 1016.9
20260507123732 64 262 1.0 5.0 0.00 0.00 0.00 44 1016.9
20260507123348 64 230 2.0 3.0 0.00 0.00 0.00 43 1016.9
20260507122349 64 222 3.0 5.0 0.00 0.00 0.00 42 1017.0
20260507122228 65 237 3.0 3.0 0.00 0.00 0.00 42 1017.1
20260507121350 65 227 3.0 6.0 0.00 0.00 0.00 42 1017.1
20260507120725 64 191 2.0 3.0 0.00 0.00 0.00 43 1017.2
20260507120351 64 233 3.0 9.0 0.00 0.00 0.00 42 1017.3
20260507115353 64 315 1.0 3.0 0.00 0.00 0.00 40 1017.4
20260507115231 64 114 0.0 1.0 0.00 0.00 0.00 40 1017.4
20260507114344 64 212 3.0 7.0 0.00 0.00 0.00 41 1017.4
20260507113728 64 252 0.0 6.0 0.00 0.00 0.00 41 1017.3
20260507113353 64 283 0.0 2.0 0.00 0.00 0.00 41 1017.3
20260507112345 65 212 8.0 10.0 0.00 0.00 0.00 40 1017.4
20260507112224 64 234 6.0 12.0 0.00 0.00 0.00 41 1017.4
20260507111346 64 347 2.0 3.0 0.00 0.00 0.00 40 1017.4
20260507110730 64 262 2.0 6.0 0.00 0.00 0.00 41 1017.4
20260507110346 65 241 6.0 7.0 0.00 0.00 0.00 40 1017.5
20260507105348 64 184 1.0 2.0 0.00 0.00 0.00 41 1017.5
20260507105227 64 248 0.0 0.0 0.00 0.00 0.00 41 1017.5
20260507104349 64 233 6.0 6.0 0.00 0.00 0.00 43 1017.5
20260507103723 63 212 2.0 7.0 0.00 0.00 0.00 44 1017.5
20260507103349 63 191 5.0 8.0 0.00 0.00 0.00 45 1017.5
20260507102351 63 208 5.0 6.0 0.00 0.00 0.00 45 1017.6
20260507102230 63 229 1.0 3.0 0.00 0.00 0.00 44 1017.5
20260507101352 63 168 1.0 3.0 0.00 0.00 0.00 46 1017.6
20260507100727 62 105 2.0 6.0 0.00 0.00 0.00 48 1017.7
20260507100353 62 180 3.0 6.0 0.00 0.00 0.00 49 1017.7
20260507095344 61 92 3.0 8.0 0.00 0.00 0.00 51 1017.8
20260507095223 61 92 5.0 6.0 0.00 0.00 0.00 51 1017.7
20260507094346 61 104 5.0 5.0 0.00 0.00 0.00 49 1017.9
20260507093730 62 231 2.0 6.0 0.00 0.00 0.00 48 1017.9
20260507093346 62 231 6.0 7.0 0.00 0.00 0.00 47 1018.0
20260507092348 62 60 1.0 2.0 0.00 0.00 0.00 48 1018.1
20260507092227 61 169 0.0 1.0 0.00 0.00 0.00 48 1018.2
20260507091349 62 233 1.0 6.0 0.00 0.00 0.00 48 1018.2
20260507090723 61 228 2.0 2.0 0.00 0.00 0.00 48 1018.2
20260507090349 61 129 0.0 1.0 0.00 0.00 0.00 50 1018.3
20260507085351 60 116 3.0 6.0 0.00 0.00 0.00 49 1018.4
20260507085230 61 332 2.0 6.0 0.00 0.00 0.00 50 1018.4
20260507084352 60 117 1.0 1.0 0.00 0.00 0.00 51 1018.4
20260507083726 60 81 2.0 5.0 0.00 0.00 0.00 52 1018.4
20260507083353 60 79 1.0 3.0 0.00 0.00 0.00 51 1018.4
20260507082345 59 284 2.0 5.0 0.00 0.00 0.00 53 1018.4
20260507082223 58 213 0.0 1.0 0.00 0.00 0.00 53 1018.3
20260507081345 58 298 1.0 3.0 0.00 0.00 0.00 53 1018.3
20260507080730 58 348 0.0 1.0 0.00 0.00 0.00 53 1018.3
20260507080346 58 305 2.0 3.0 0.00 0.00 0.00 53 1018.3
20260507075347 57 297 0.0 2.0 0.00 0.00 0.00 54 1018.4
20260507075226 58 310 1.0 2.0 0.00 0.00 0.00 54 1018.4
20260507074349 57 351 0.0 0.0 0.00 0.00 0.00 54 1018.3
20260507073723 58 291 1.0 3.0 0.00 0.00 0.00 54 1018.3
20260507073349 58 251 3.0 6.0 0.00 0.00 0.00 54 1018.3
20260507072351 57 215 0.0 0.0 0.00 0.00 0.00 57 1018.4
20260507072230 57 55 0.0 0.0 0.00 0.00 0.00 57 1018.3
20260507071352 56 312 0.0 0.0 0.00 0.00 0.00 57 1018.3
20260507070726 55 330 1.0 1.0 0.00 0.00 0.00 58 1018.4
20260507070352 55 246 1.0 1.0 0.00 0.00 0.00 59 1018.4
20260507065344 55 353 1.0 3.0 0.00 0.00 0.00 59 1018.4
20260507065223 55 316 1.0 2.0 0.00 0.00 0.00 58 1018.4
20260507064345 55 323 2.0 2.0 0.00 0.00 0.00 59 1018.3
20260507063729 55 327 1.0 2.0 0.00 0.00 0.00 60 1018.3
20260507063345 54 357 1.0 2.0 0.00 0.00 0.00 61 1018.3
20260507062347 54 0 1.0 2.0 0.00 0.00 0.00 62 1018.4
20260507062226 54 3 1.0 3.0 0.00 0.00 0.00 62 1018.3
20260507061348 53 318 1.0 1.0 0.00 0.00 0.00 64 1018.3
20260507060723 53 316 1.0 2.0 0.00 0.00 0.00 63 1018.4
20260507060349 52 9 0.0 0.0 0.00 0.00 0.00 65 1018.3
20260507055350 52 253 0.0 0.0 0.00 0.00 0.00 67 1018.4
20260507055229 51 270 0.0 1.0 0.00 0.00 0.00 67 1018.4
20260507054352 51 301 2.0 3.0 0.00 0.00 0.00 67 1018.3
20260507053726 51 322 1.0 3.0 0.00 0.00 0.00 69 1018.3
20260507053352 50 266 0.0 0.0 0.00 0.00 0.00 69 1018.2
20260507052344 49 281 1.0 1.0 0.00 0.00 0.00 70 1018.3
20260507052223 49 278 2.0 3.0 0.00 0.00 0.00 70 1018.3
20260507051345 49 280 1.0 1.0 0.00 0.00 0.00 71 1018.2
20260507050729 49 280 0.0 1.0 0.00 0.00 0.00 72 1018.1
20260507050345 49 293 0.0 2.0 0.00 0.00 0.00 73 1018.0
20260507045346 48 289 0.0 0.0 0.00 0.00 0.00 73 1018.0
20260507045225 48 303 0.0 0.0 0.00 0.00 0.00 74 1018.0
20260507044347 48 291 0.0 0.0 0.00 0.00 0.00 74 1017.9
20260507043730 48 319 0.0 0.0 0.00 0.00 0.00 73 1017.9
20260507043347 47 150 0.0 0.0 0.00 0.00 0.00 74 1017.9
20260507042348 47 300 0.0 0.0 0.00 0.00 0.00 74 1017.7
20260507042227 47 300 0.0 0.0 0.00 0.00 0.00 74 1017.7
20260507041349 46 300 0.0 0.0 0.00 0.00 0.00 74 1017.7
20260507040723 46 300 0.0 0.0 0.00 0.00 0.00 74 1017.8
20260507040349 46 300 0.0 0.0 0.00 0.00 0.00 73 1017.7
20260507035351 46 198 1.0 3.0 0.00 0.00 0.00 74 1017.6
20260507035229 46 176 1.0 2.0 0.00 0.00 0.00 74 1017.6
20260507034352 45 173 2.0 2.0 0.00 0.00 0.00 74 1017.6
20260507033726 45 192 2.0 3.0 0.00 0.00 0.00 75 1017.6
20260507033352 45 193 2.0 3.0 0.00 0.00 0.00 75 1017.6
20260507032344 45 163 2.0 6.0 0.00 0.00 0.00 75 1017.5
20260507032223 45 178 2.0 3.0 0.00 0.00 0.00 75 1017.5
20260507031345 45 151 1.0 3.0 0.00 0.00 0.00 75 1017.4
20260507030728 45 105 1.0 1.0 0.00 0.00 0.00 75 1017.4
20260507030344 45 170 0.0 1.0 0.00 0.00 0.00 75 1017.4
20260507025346 45 143 1.0 2.0 0.00 0.00 0.00 75 1017.4
20260507025225 45 147 1.0 2.0 0.00 0.00 0.00 75 1017.4
20260507024347 45 144 1.0 3.0 0.00 0.00 0.00 75 1017.4